Regional Weather Roundup
Issued by NWS Goodland, KS

Home | Current Version | Previous Version | Text Only | Print | Product List | Glossary Off
Versions: 1 2 3 4 5 6 7 8 9 10 11 12 13 14 15 16 17 18 19 20 21 22 23 24 25 26 27 28 29 30 31 32 33 34 35 36 37 38 39 40 41 42 43 44 45 46 47 48 49 50

473
ASUS43 KGLD 200259
RWRGLD

GOODLAND FORECAST AREA HOURLY WEATHER ROUNDUP
NATIONAL WEATHER SERVICE GOODLAND KS
900 PM MDT THU APR 19 2018

...OFFICIAL OBSERVATIONS...

CITY           SKY/WX    TMP DP  RH WIND       PRES   REMARKS
GOODLAND KS    MOCLDY    49  26  41 SE20G30   30.17R
HILL CITY KS   PTCLDY    45  27  49 SE8       30.30R
IMPERIAL NEB   CLOUDY    48  26  42 E20       30.19R
MCCOOK NEB     MOCLDY    46  27  47 E15       30.25R
AKRON CO       CLOUDY    49  26  41 SE30G38   30.08R
BURLINGTON CO  CLOUDY    49  26  41 SE22G32   30.14R
LIMON CO       MOCLDY    51  19  28 SE25G36   30.05F
$$

...UNOFFICIAL OBSERVATIONS...

CITY           SKY/WX    TMP DP  RH WIND       PRES   REMARKS
NORTON KS      CLEAR     45  28  53 E7        30.28
SHARON SPRINGS   N/A     49  27  42 S7G20       N/A
KIT CARSON CO    N/A     52  27  37 MISG        N/A
YUMA CO        FAIR      50  19  29 SE24G31   30.11R
$$




USA.gov is the U.S. government's official web portal to all federal, state and local government web resources and services.